East Texas Regional Airport Longview US
ICAO: KGGG
IATA: GGG
Category: Medium
Scheduled Services: Yes

Elevation: 365 ft
TransAlt. 18000 ft.

Airport Communications:
LONGVIEW APP/DEP:118.25
ATIS:119.65
CTAF:119.2
GND:121.6
TWR:119.2
UNICOM:122.95

KGGG Zoom In..

If you have problems with the map follow the link
https://www.worldairports.se/pages/airport.php?
ICAO=KGGG

Runways:

(A) RW 13 length 10000 ft width 150 ft
ILS 109.50 / hdg 131

(B) RW 18 length 6109 ft width 150 ft
---- / hdg 176

(C) RW 31 length 10000 ft width 150 ft
---- / hdg 311

(D) RW 36 length 6109 ft width 150 ft
---- / hdg 356

Location; KGGG
Day. 16 / Time. 11.53 Zulu
* Altimeter: 30.17
* Temperature: 03° c. 37.4°f.
* Wind from: 180° Speed 04 kn.
Dewpoint: 02° c.
Visibility: 10 Statute Miles.
Clouds: Clear (automated report).

KGGG 161153Z 18004KT 10SM CLR 03/02 A3017 RMK AO2 SLP220 T00330022 10067 20033 53002


Wind From 180°
Speed 04 kn.

 
 
jpsmedia.com for Web Design worldairports.se 2018   terms of use